When you browse on this site, cookies collect data to enhance your experience and personalize the content and advertising you see.
Visit our Privacy Policy to learn more. By continuing to use the site, you agree to this use of cookies and data.
  • In Netherlands
  • List of Countries
  • For 7 days
  • Water Temperature
  • Weather Map
  • Weather Widgets
  • user-avatar
    Login

    Hourly Weather Musklimahi

    Today, 19 October, Saturday

    Time Temperature Precipitation Wind Pressure Humidity
    00:00 +12°C° 0 mm 1 mps 636 mmHg 50%
    01:00 +11°C° 0 mm 1 mps 635 mmHg 50%
    02:00 +11°C° 0 mm 1 mps 635 mmHg 51%
    03:00 +11°C° 0 mm 1 mps 635 mmHg 51%
    04:00 +11°C° 0 mm 1 mps 635 mmHg 51%
    05:00 +11°C° 0 mm 1 mps 635 mmHg 50%
    06:00 +11°C° 0 mm 1 mps 636 mmHg 49%
    07:00 +13°C° 0 mm 1 mps 636 mmHg 45%
    08:00 +15°C° 0 mm 1 mps 637 mmHg 42%
    09:00 +16°C° 0 mm 1 mps 638 mmHg 38%
    10:00 +18°C° 0 mm 1 mps 638 mmHg 39%
    11:00 +17°C° 0 mm 2 mps 638 mmHg 40%
    12:00 +18°C° 0 mm 2 mps 639 mmHg 41%
    13:00 +17°C° 0.2 mm 2 mps 638 mmHg 46%
    14:00 +17°C° 0.2 mm 2 mps 638 mmHg 51%
    15:00 +16°C° 0.2 mm 1 mps 637 mmHg 56%
    16:00 +15°C° 0.2 mm 1 mps 637 mmHg 63%
    17:00 +13°C° 0.2 mm 1 mps 637 mmHg 71%
    18:00 +11°C° 0.2 mm 0 mps 637 mmHg 78%
    19:00 +11°C° 0 mm 0 mps 637 mmHg 77%
    20:00 +10°C° 0 mm 0 mps 637 mmHg 77%
    21:00 +10°C° 0 mm 0 mps 637 mmHg 76%
    22:00 +11°C° 0 mm 1 mps 637 mmHg 75%
    23:00 +11°C° 0 mm 1 mps 637 mmHg 74%

    Tomorrow, 20 October, Sunday

    Time Temperature Precipitation Wind Pressure Humidity
    00:00 +10°C° 0 mm 1 mps 637 mmHg 73%
    01:00 +10°C° 0 mm 1 mps 637 mmHg 73%
    02:00 +10°C° 0 mm 1 mps 637 mmHg 72%
    03:00 +10°C° 0 mm 1 mps 637 mmHg 71%
    04:00 +10°C° 0 mm 1 mps 637 mmHg 71%
    05:00 +9°C° 0 mm 1 mps 637 mmHg 71%
    06:00 +9°C° 0 mm 1 mps 637 mmHg 71%
    07:00 +11°C° 0 mm 1 mps 638 mmHg 66%
    08:00 +13°C° 0 mm 1 mps 639 mmHg 61%
    09:00 +15°C° 0 mm 1 mps 640 mmHg 56%
    10:00 +15°C° 0 mm 1 mps 640 mmHg 56%
    11:00 +16°C° 0 mm 2 mps 640 mmHg 57%
    12:00 +16°C° 0 mm 3 mps 640 mmHg 57%
    13:00 +15°C° 0.3 mm 2 mps 640 mmHg 62%
    14:00 +15°C° 0.3 mm 2 mps 639 mmHg 67%
    15:00 +14°C° 0.3 mm 2 mps 639 mmHg 71%
    16:00 +13°C° 0.2 mm 1 mps 639 mmHg 79%
    17:00 +12°C° 0.2 mm 1 mps 638 mmHg 86%
    18:00 +9°C° 0.2 mm 0 mps 638 mmHg 93%
    19:00 +9°C° 0 mm 0 mps 638 mmHg 92%
    20:00 +9°C° 0 mm 0 mps 638 mmHg 91%
    21:00 +8°C° 0 mm 0 mps 638 mmHg 90%
    22:00 +8°C° 0 mm 0 mps 638 mmHg 89%
    23:00 +8°C° 0 mm 0 mps 638 mmHg 88%

    Day after tomorrow, 21 October, Monday

    Time Temperature Precipitation Wind Pressure Humidity
    00:00 +8°C° 0 mm 0 mps 638 mmHg 87%
    01:00 +8°C° 0 mm 0 mps 638 mmHg 86%
    02:00 +8°C° 0 mm 0 mps 638 mmHg 85%
    03:00 +7°C° 0 mm 0 mps 638 mmHg 83%
    04:00 +7°C° 0 mm 0 mps 638 mmHg 82%
    05:00 +7°C° 0 mm 0 mps 638 mmHg 81%
    06:00 +7°C° 0 mm 0 mps 638 mmHg 80%
    07:00 +10°C° 0 mm 1 mps 638 mmHg 75%
    08:00 +11°C° 0 mm 1 mps 639 mmHg 69%
    09:00 +13°C° 0 mm 1 mps 640 mmHg 64%
    10:00 +14°C° 0 mm 2 mps 640 mmHg 63%
    11:00 +14°C° 0 mm 2 mps 640 mmHg 63%
    12:00 +15°C° 0 mm 2 mps 640 mmHg 63%
    13:00 +14°C° 0 mm 2 mps 640 mmHg 67%
    14:00 +14°C° 0 mm 2 mps 639 mmHg 71%
    15:00 +13°C° 0 mm 2 mps 639 mmHg 75%
    16:00 +12°C° 0 mm 1 mps 639 mmHg 81%
    17:00 +11°C° 0 mm 1 mps 638 mmHg 87%
    18:00 +8°C° 0 mm 0 mps 638 mmHg 93%
    19:00 +8°C° 0 mm 0 mps 638 mmHg 92%
    20:00 +8°C° 0 mm 0 mps 638 mmHg 90%
    21:00 +8°C° 0 mm 0 mps 638 mmHg 89%
    22:00 +8°C° 0 mm 0 mps 638 mmHg 88%
    23:00 +7°C° 0 mm 0 mps 637 mmHg 87%

    22 October, Tuesday

    Time Temperature Precipitation Wind Pressure Humidity
    00:00 +7°C° 0 mm 0 mps 637 mmHg 86%
    01:00 +7°C° 0 mm 0 mps 637 mmHg 84%
    02:00 +8°C° 0 mm 1 mps 637 mmHg 82%
    03:00 +8°C° 0 mm 1 mps 637 mmHg 80%
    04:00 +8°C° 0 mm 1 mps 637 mmHg 78%
    05:00 +8°C° 0 mm 1 mps 637 mmHg 77%
    06:00 +8°C° 0 mm 1 mps 637 mmHg 75%
    07:00 +9°C° 0 mm 1 mps 638 mmHg 70%
    08:00 +11°C° 0 mm 1 mps 638 mmHg 66%
    09:00 +13°C° 0 mm 1 mps 639 mmHg 61%
    10:00 +13°C° 0 mm 2 mps 639 mmHg 62%
    11:00 +14°C° 0 mm 2 mps 639 mmHg 62%
    12:00 +15°C° 0 mm 2 mps 639 mmHg 62%
    13:00 +14°C° 0 mm 2 mps 639 mmHg 66%
    14:00 +14°C° 0 mm 2 mps 639 mmHg 70%
    15:00 +13°C° 0 mm 2 mps 639 mmHg 74%
    16:00 +12°C° 0 mm 1 mps 638 mmHg 80%
    17:00 +11°C° 0 mm 1 mps 638 mmHg 87%
    18:00 +8°C° 0 mm 0 mps 637 mmHg 93%
    19:00 +8°C° 0 mm 0 mps 637 mmHg 92%
    20:00 +8°C° 0 mm 0 mps 637 mmHg 90%
    21:00 +8°C° 0 mm 0 mps 638 mmHg 89%
    22:00 +8°C° 0 mm 0 mps 637 mmHg 87%
    23:00 +8°C° 0 mm 1 mps 637 mmHg 85%

    23 October, Wednesday

    Time Temperature Precipitation Wind Pressure Humidity
    00:00 +8°C° 0 mm 1 mps 637 mmHg 82%
    01:00 +8°C° 0 mm 1 mps 637 mmHg 78%
    02:00 +8°C° 0 mm 1 mps 637 mmHg 74%
    03:00 +8°C° 0 mm 1 mps 637 mmHg 70%
    04:00 +8°C° 0 mm 1 mps 637 mmHg 66%
    05:00 +8°C° 0 mm 1 mps 637 mmHg 62%
    06:00 +8°C° 0 mm 1 mps 637 mmHg 59%
    07:00 +10°C° 0 mm 1 mps 637 mmHg 54%
    08:00 +12°C° 0 mm 1 mps 638 mmHg 50%
    09:00 +14°C° 0 mm 1 mps 639 mmHg 46%
    10:00 +14°C° 0 mm 1 mps 639 mmHg 47%
    11:00 +15°C° 0 mm 2 mps 639 mmHg 48%
    12:00 +16°C° 0 mm 2 mps 639 mmHg 49%
    13:00 +15°C° 0 mm 2 mps 639 mmHg 53%
    14:00 +15°C° 0 mm 2 mps 639 mmHg 57%
    15:00 +15°C° 0 mm 2 mps 639 mmHg 61%
    16:00 +13°C° 0 mm 1 mps 638 mmHg 70%
    17:00 +11°C° 0 mm 1 mps 638 mmHg 78%
    18:00 +9°C° 0 mm 0 mps 637 mmHg 86%
    19:00 +8°C° 0 mm 0 mps 637 mmHg 84%
    20:00 +8°C° 0 mm 0 mps 637 mmHg 82%
    21:00 +8°C° 0 mm 0 mps 638 mmHg 79%
    22:00 +8°C° 0 mm 0 mps 637 mmHg 77%
    23:00 +9°C° 0 mm 1 mps 637 mmHg 75%

    24 October, Thursday

    Time Temperature Precipitation Wind Pressure Humidity
    00:00 +9°C° 0 mm 1 mps 637 mmHg 73%
    01:00 +9°C° 0 mm 1 mps 637 mmHg 71%
    02:00 +8°C° 0 mm 1 mps 637 mmHg 68%
    03:00 +8°C° 0 mm 1 mps 637 mmHg 66%
    04:00 +8°C° 0 mm 1 mps 637 mmHg 62%
    05:00 +8°C° 0 mm 1 mps 637 mmHg 59%
    06:00 +8°C° 0 mm 1 mps 637 mmHg 55%
    07:00 +10°C° 0 mm 1 mps 638 mmHg 51%
    08:00 +12°C° 0 mm 1 mps 639 mmHg 47%
    09:00 +14°C° 0 mm 1 mps 639 mmHg 43%
    10:00 +15°C° 0 mm 1 mps 639 mmHg 44%
    11:00 +15°C° 0 mm 2 mps 640 mmHg 46%
    12:00 +16°C° 0 mm 2 mps 640 mmHg 47%
    13:00 +16°C° 0 mm 2 mps 639 mmHg 53%
    14:00 +15°C° 0 mm 2 mps 639 mmHg 58%
    15:00 +15°C° 0 mm 2 mps 639 mmHg 64%
    16:00 +13°C° 0 mm 1 mps 638 mmHg 71%
    17:00 +12°C° 0 mm 1 mps 638 mmHg 78%
    18:00 +9°C° 0 mm 0 mps 637 mmHg 86%
    19:00 +9°C° 0 mm 0 mps 637 mmHg 84%
    20:00 +9°C° 0 mm 0 mps 637 mmHg 82%
    21:00 +9°C° 0 mm 0 mps 637 mmHg 81%
    22:00 +9°C° 0 mm 0 mps 637 mmHg 79%
    23:00 +8°C° 0 mm 0 mps 637 mmHg 78%
    Show more